Group_ship,Cruise,JD_GMT,Date_DDMMYYYY,TIME_HH:MM:SS,Lat_dec_degree,Long_dec_degree,xCO2eq_ppm,xCO2a_ppm,Pres_Equi_hPa,Pres_sealevel_hPa,EqTemp_C,SST(TSG)_C,Sal(TSG)_Permil,Water_flow_l/min,Gasflow_IR_ml/min,Temp_IR_C,Pres_IR_hPa,Ship_heading_true_degree,Ship_speed_knot,Wind_dir_rel_degree,Wind_speed_rel_m/s,fCO2W@SST_uatm,Qcflag_water,fCO2a_uatm,Qcflag_air,dfCO2_uatm,Fluoro_ug/l,Wind_speed_true_m/s,Wind_dir_true_degree,Air_temp_C,Oxygen
AOML_Explorer,Ex0720B,132.017,12052007,0:24:13,40.094,-73.419,366.48,-9.00,1010.41,1008.70,13.02,12.78,31.317,1.467,102.158,30.562,1010.411,137.700,19.400,30.000,14.926,355.18,2,-9.00,9,-9.00,0.42,7.96,205.70,15.07,296.67
AOML_Explorer,Ex0720B,132.019,12052007,0:26:46,40.084,-73.407,363.73,-9.00,1010.44,1008.80,13.23,12.81,31.457,1.484,101.967,30.570,1010.438,137.900,19.500,31.000,14.412,349.84,2,-9.00,9,-9.00,0.41,7.75,209.59,15.11,297.47
AOML_Explorer,Ex0720B,132.020,12052007,0:29:19,40.074,-73.395,349.59,-9.00,1010.50,1008.80,13.49,12.39,31.985,1.463,102.046,30.574,1010.503,137.900,19.500,31.000,13.897,326.82,2,-9.00,9,-9.00,0.33,7.31,212.04,15.01,294.30
AOML_Explorer,Ex0720B,132.022,12052007,0:31:52,40.063,-73.383,346.86,-9.00,1010.56,1008.80,13.51,11.89,32.224,1.483,101.830,30.577,1010.559,137.500,19.400,30.000,14.412,317.55,2,-9.00,9,-9.00,0.26,7.53,207.52,14.96,293.69
AOML_Explorer,Ex0720B,132.024,12052007,0:34:25,40.053,-73.371,363.48,-9.00,1010.48,1008.90,13.26,11.92,32.326,1.461,101.775,30.577,1010.483,137.000,19.400,35.000,14.412,336.64,2,-9.00,9,-9.00,0.25,8.43,214.34,14.75,292.90
AOML_Explorer,Ex0720B,132.026,12052007,0:36:58,40.043,-73.359,380.37,-9.00,1010.52,1008.80,12.71,11.82,32.237,1.475,101.707,30.578,1010.515,136.500,19.400,32.000,14.412,358.97,2,-9.00,9,-9.00,0.28,8.05,211.29,14.4,295.07
AOML_Explorer,Ex0720B,132.027,12052007,0:39:31,40.033,-73.347,385.94,-9.00,1010.53,1009.00,12.74,11.70,32.239,1.481,102.143,30.578,1010.531,136.800,19.600,35.000,14.412,362.06,2,-9.00,9,-9.00,0.30,8.55,215.61,13.99,297.60
AOML_Explorer,Ex0720B,132.029,12052007,0:42:04,40.023,-73.334,384.17,-9.00,1010.56,1008.90,12.70,12.19,31.958,1.498,101.881,30.576,1010.562,137.000,19.600,38.000,14.412,368.50,2,-9.00,9,-9.00,0.30,9.02,218.91,13.62,298.08
AOML_Explorer,Ex0720B,132.031,12052007,0:44:37,40.013,-73.322,380.89,-9.00,1010.66,1008.90,12.83,11.64,32.419,1.461,101.940,30.577,1010.664,136.200,19.500,40.000,14.412,355.15,2,-9.00,9,-9.00,0.28,9.24,219.95,13.33,299.83
AOML_Explorer,Ex0720B,132.033,12052007,0:47:10,40.003,-73.310,377.18,-9.00,1010.86,1009.00,12.96,11.86,32.464,1.482,101.676,30.576,1010.859,136.300,19.500,34.000,14.412,352.95,2,-9.00,9,-9.00,0.27,8.28,212.99,13.16,298.76
AOML_Explorer,Ex0720B,132.035,12052007,0:49:43,39.993,-73.297,382.95,-9.00,1010.71,1009.10,12.75,11.24,32.229,1.466,101.861,30.573,1010.712,134.800,19.400,37.000,14.926,352.44,2,-9.00,9,-9.00,0.31,9.17,212.40,13.3,301.12
AOML_Explorer,Ex0720B,132.036,12052007,0:52:16,39.983,-73.285,387.43,-9.00,1010.81,1009.00,12.69,11.41,32.058,1.458,101.921,30.574,1010.814,134.000,19.500,39.000,14.926,360.01,2,-9.00,9,-9.00,0.29,9.50,214.76,13.41,299.63
AOML_Explorer,Ex0720B,132.038,12052007,0:54:49,39.974,-73.271,384.09,-9.00,1010.84,1009.10,12.26,11.46,32.081,1.439,101.503,30.573,1010.843,126.900,19.400,39.000,13.897,364.13,2,-9.00,9,-9.00,0.28,8.62,210.21,13.31,300.14
AOML_Explorer,Ex0720B,132.040,12052007,0:57:22,39.967,-73.256,381.56,-9.00,1010.96,1009.10,12.37,11.38,32.061,1.468,101.688,30.570,1010.960,122.200,19.500,30.000,13.382,358.97,2,-9.00,9,-9.00,0.29,6.65,196.31,13.09,300.92
AOML_Explorer,Ex0720B,132.042,12052007,0:59:55,39.960,-73.241,381.56,-9.00,1010.91,1009.10,12.39,11.31,32.117,1.474,101.653,30.573,1010.911,112.100,19.500,44.000,13.382,357.63,2,-9.00,9,-9.00,0.29,9.06,202.49,12.9,301.19
AOML_Explorer,Ex0720B,132.057,12052007,1:21:40,39.940,-73.090,388.42,-9.00,1011.15,1009.10,12.46,11.49,32.692,1.432,102.724,30.646,1011.152,96.100,19.600,47.000,11.838,365.73,2,-9.00,9,-9.00,0.24,8.78,198.65,13.59,304.51
AOML_Explorer,Ex0720B,132.058,12052007,1:24:13,39.939,-73.072,388.09,-9.00,1011.14,1009.10,12.42,11.60,32.642,1.420,102.964,30.648,1011.138,96.200,19.500,47.000,11.323,367.78,2,-9.00,9,-9.00,0.24,8.49,201.08,13.66,304.85
AOML_Explorer,Ex0720B,132.060,12052007,1:26:46,39.937,-73.054,387.32,-9.00,1011.05,1009.10,12.50,10.98,32.984,1.389,102.334,30.648,1011.054,101.800,19.500,49.000,11.838,356.43,2,-9.00,9,-9.00,0.26,9.20,206.49,13.74,306.73
AOML_Explorer,Ex0720B,132.062,12052007,1:29:19,39.933,-73.037,387.18,-9.00,1011.04,1009.20,12.49,10.97,32.881,1.414,102.655,30.645,1011.042,109.900,19.400,47.000,12.868,356.32,2,-9.00,9,-9.00,0.23,9.53,207.74,13.75,308.92
AOML_Explorer,Ex0720B,132.064,12052007,1:31:52,39.927,-73.021,381.06,-9.00,1011.03,1009.20,12.04,11.12,33.019,1.399,102.381,30.641,1011.033,120.500,19.400,48.000,13.897,359.65,2,-9.00,9,-9.00,0.23,10.33,214.99,14,311.19
AOML_Explorer,Ex0720B,132.066,12052007,1:34:25,39.919,-73.007,372.75,-9.00,1010.99,1009.40,12.04,11.30,33.019,1.365,102.431,30.636,1010.986,130.600,19.400,43.000,14.926,354.35,2,-9.00,9,-9.00,0.24,10.25,216.19,14.16,312.69
AOML_Explorer,Ex0720B,132.067,12052007,1:36:58,39.909,-72.994,371.16,-9.00,1011.06,1009.40,12.16,11.06,33.125,1.407,102.184,30.632,1011.063,140.300,19.300,38.000,14.926,347.73,2,-9.00,9,-9.00,0.29,9.45,219.95,13.94,313.69
AOML_Explorer,Ex0720B,132.069,12052007,1:39:31,39.898,-72.983,371.15,-9.00,1011.01,1009.50,12.25,11.43,33.109,1.390,102.576,30.624,1011.006,142.000,19.300,40.000,15.441,351.74,2,-9.00,9,-9.00,0.27,10.10,221.81,13.78,313.09
AOML_Explorer,Ex0720B,132.071,12052007,1:42:04,39.887,-72.973,363.73,-9.00,1011.05,1009.60,12.19,11.04,33.149,1.392,102.123,30.617,1011.052,144.500,19.200,39.000,14.926,339.99,2,-9.00,9,-9.00,0.26,9.50,224.05,13.63,315.40
AOML_Explorer,Ex0720B,132.073,12052007,1:44:37,39.876,-72.963,357.44,-9.00,1011.01,1009.60,12.29,11.13,33.077,1.392,102.034,30.611,1011.008,147.800,19.300,40.000,14.412,333.93,2,-9.00,9,-9.00,0.24,9.35,230.96,13.57,318.29
AOML_Explorer,Ex0720B,132.074,12052007,1:47:10,39.864,-72.953,353.21,-9.00,1010.96,1009.70,12.08,11.27,33.056,1.395,102.441,30.604,1010.961,146.700,19.300,40.000,14.926,334.81,2,-9.00,9,-9.00,0.23,9.70,227.65,13.45,318.66
AOML_Explorer,Ex0720B,132.076,12052007,1:49:43,39.853,-72.944,351.25,-9.00,1011.17,1009.60,12.16,10.96,32.982,1.372,101.962,30.598,1011.174,146.500,19.300,39.000,15.441,327.68,2,-9.00,9,-9.00,0.23,9.94,224.53,13.31,320.10
AOML_Explorer,Ex0720B,132.078,12052007,1:52:16,39.841,-72.934,352.65,-9.00,1011.08,1009.70,12.16,11.28,33.055,1.336,102.508,30.593,1011.076,146.500,19.300,40.000,15.956,333.35,2,-9.00,9,-9.00,0.24,10.51,224.30,13.1,320.21
AOML_Explorer,Ex0720B,132.080,12052007,1:54:49,39.830,-72.924,350.52,-9.00,1011.09,1009.70,12.08,11.00,33.137,1.379,101.863,30.585,1011.093,146.800,19.300,41.000,15.441,328.68,2,-9.00,9,-9.00,0.22,10.22,227.25,12.95,320.66
AOML_Explorer,Ex0720B,132.082,12052007,1:57:22,39.818,-72.915,349.12,-9.00,1011.07,1009.70,12.29,11.60,33.023,1.329,102.529,30.581,1011.066,146.800,19.600,40.000,15.441,332.61,2,-9.00,9,-9.00,0.22,10.04,226.54,12.87,321.10
AOML_Explorer,Ex0720B,132.083,12052007,1:59:55,39.807,-72.905,349.20,-9.00,1011.04,1009.60,12.20,10.92,33.092,1.222,102.085,30.577,1011.035,146.700,19.400,40.000,14.926,324.68,2,-9.00,9,-9.00,0.26,9.67,228.47,12.83,320.90
AOML_Explorer,Ex0720B,132.098,12052007,2:21:40,39.711,-72.817,356.59,-9.00,1011.16,1009.60,12.42,11.42,33.027,0.928,102.394,30.610,1011.158,138.000,19.500,46.000,15.956,335.34,2,-9.00,9,-9.00,0.21,11.58,223.29,12.65,319.48
AOML_Explorer,Ex0720B,132.100,12052007,2:24:13,39.700,-72.804,355.16,-9.00,1011.18,1009.70,12.50,11.59,33.010,0.907,102.640,30.610,1011.182,137.800,19.600,43.000,15.956,335.29,2,-9.00,9,-9.00,0.19,11.08,220.18,12.79,319.86
AOML_Explorer,Ex0720B,132.102,12052007,2:26:46,39.690,-72.793,354.92,-9.00,1011.28,1009.60,12.52,11.33,33.071,0.939,102.804,30.606,1011.278,141.400,19.600,47.000,16.470,331.15,2,-9.00,9,-9.00,0.20,12.22,226.74,12.78,322.47
AOML_Explorer,Ex0720B,132.104,12052007,2:29:19,39.679,-72.781,354.89,-9.00,1010.92,1009.50,12.63,10.85,32.922,1.059,102.042,30.602,1010.920,141.300,19.800,48.000,17.500,322.97,2,-9.00,9,-9.00,0.25,13.21,225.19,12.79,325.45
AOML_Explorer,Ex0720B,132.105,12052007,2:31:52,39.668,-72.770,354.08,-9.00,1011.02,1009.50,12.57,10.96,32.985,1.001,102.426,30.598,1011.024,141.100,19.800,49.000,17.500,324.68,2,-9.00,9,-9.00,0.26,13.32,226.21,12.83,323.84
AOML_Explorer,Ex0720B,132.107,12052007,2:34:25,39.657,-72.759,349.46,-9.00,1010.82,1009.40,12.22,10.19,33.249,1.029,101.896,30.590,1010.821,141.200,19.800,53.000,17.500,314.98,2,-9.00,9,-9.00,0.27,14.04,230.22,13.02,325.39
AOML_Explorer,Ex0720B,132.109,12052007,2:36:58,39.646,-72.748,346.78,-9.00,1010.90,1009.30,12.20,10.80,32.753,1.048,102.440,30.580,1010.899,141.400,19.700,55.000,17.500,320.71,2,-9.00,9,-9.00,0.30,14.39,232.26,13.29,328.11
AOML_Explorer,Ex0720B,132.111,12052007,2:39:31,39.635,-72.736,344.93,-9.00,1010.91,1009.30,11.94,10.82,32.801,1.015,102.220,30.576,1010.913,141.200,19.700,53.000,16.985,322.83,2,-9.00,9,-9.00,0.28,13.62,231.32,13.33,329.17
AOML_Explorer,Ex0720B,132.113,12052007,2:42:04,39.624,-72.725,343.15,-9.00,1010.81,1009.40,11.94,10.51,32.919,1.052,102.489,30.568,1010.811,141.300,19.600,53.000,16.985,316.97,2,-9.00,9,-9.00,0.28,13.61,231.22,13.38,328.64
AOML_Explorer,Ex0720B,132.114,12052007,2:44:37,39.613,-72.714,343.59,-9.00,1010.80,1009.40,12.03,10.38,32.807,1.002,102.191,30.562,1010.799,141.400,19.600,54.000,16.985,314.53,2,-9.00,9,-9.00,0.29,13.80,232.16,13.3,328.32
AOML_Explorer,Ex0720B,132.116,12052007,2:47:10,39.602,-72.703,344.76,-9.00,1010.83,1009.50,11.75,9.84,32.871,1.231,102.050,30.552,1010.834,141.600,19.500,50.000,17.500,312.26,2,-9.00,9,-9.00,0.27,13.48,226.79,13.02,327.76
AOML_Explorer,Ex0720B,132.118,12052007,2:49:43,39.591,-72.691,343.46,-9.00,1010.97,1009.50,11.54,10.63,32.645,1.239,102.268,30.543,1010.973,141.800,19.600,50.000,17.500,324.38,2,-9.00,9,-9.00,0.30,13.46,226.78,12.96,328.34
AOML_Explorer,Ex0720B,132.120,12052007,2:52:16,39.581,-72.680,339.35,-9.00,1011.06,1009.50,11.27,10.60,32.780,1.228,101.580,30.535,1011.057,141.700,19.600,51.000,16.985,323.83,2,-9.00,9,-9.00,0.29,13.23,229.19,13.08,329.17
AOML_Explorer,Ex0720B,132.121,12052007,2:54:49,39.570,-72.669,339.76,-9.00,1011.18,1009.50,11.65,9.88,32.845,1.238,101.950,30.526,1011.183,141.700,19.700,50.000,17.500,309.74,2,-9.00,9,-9.00,0.28,13.41,226.87,13.05,329.72
AOML_Explorer,Ex0720B,132.123,12052007,2:57:22,39.559,-72.658,343.23,-9.00,1010.95,1009.50,11.68,10.09,32.695,1.299,102.219,30.517,1010.949,141.700,19.700,53.000,17.500,315.14,2,-9.00,9,-9.00,0.26,13.99,230.10,13.11,329.35
AOML_Explorer,Ex0720B,132.125,12052007,2:59:55,39.548,-72.647,342.34,-9.00,1011.06,1009.40,11.24,10.47,32.726,1.332,102.258,30.509,1011.058,141.500,19.800,55.000,17.500,325.35,2,-9.00,9,-9.00,0.26,14.35,232.15,13.28,328.79
AOML_Explorer,Ex0720B,132.140,12052007,3:21:40,39.454,-72.551,345.46,-9.00,1010.77,1009.40,11.80,10.02,32.947,1.219,102.133,30.528,1010.770,141.400,20.000,55.000,17.500,314.60,2,-9.00,9,-9.00,0.35,14.40,232.49,12.76,328.44
AOML_Explorer,Ex0720B,132.142,12052007,3:24:13,39.442,-72.540,347.84,-9.00,1010.81,1009.50,11.84,10.73,32.837,1.198,102.498,30.526,1010.814,141.800,20.200,53.000,17.500,325.78,2,-9.00,9,-9.00,0.29,14.03,230.96,12.76,329.13
AOML_Explorer,Ex0720B,132.144,12052007,3:26:46,39.431,-72.528,347.27,-9.00,1010.70,1009.40,11.49,10.09,32.774,1.206,101.889,30.518,1010.703,141.800,20.200,56.000,17.500,321.27,2,-9.00,9,-9.00,0.33,14.52,233.89,12.75,328.93
AOML_Explorer,Ex0720B,132.145,12052007,3:29:19,39.420,-72.518,347.83,-9.00,1010.87,1009.60,11.70,9.60,32.884,1.224,102.336,30.512,1010.874,148.300,20.200,48.000,17.500,312.68,2,-9.00,9,-9.00,0.37,13.11,232.73,12.84,329.24
AOML_Explorer,Ex0720B,132.147,12052007,3:31:52,39.407,-72.509,346.94,-9.00,1010.96,1009.80,11.25,9.96,32.801,1.189,101.920,30.506,1010.963,153.600,20.200,42.000,18.529,322.64,2,-9.00,9,-9.00,0.36,12.78,227.54,12.93,328.70
AOML_Explorer,Ex0720B,132.149,12052007,3:34:25,39.394,-72.502,339.97,-9.00,1011.02,1009.80,10.97,9.37,32.976,1.251,102.498,30.499,1011.018,160.000,20.100,42.000,18.529,312.19,2,-9.00,9,-9.00,0.46,12.82,234.42,13.01,328.42
AOML_Explorer,Ex0720B,132.151,12052007,3:36:58,39.381,-72.496,336.98,-9.00,1010.98,1009.80,11.08,10.21,32.570,1.273,102.111,30.491,1010.977,160.000,20.000,42.000,18.015,318.87,2,-9.00,9,-9.00,0.26,12.38,234.92,13.21,331.28
AOML_Explorer,Ex0720B,132.152,12052007,3:39:31,39.368,-72.489,334.02,-9.00,1011.09,1009.70,10.80,9.94,33.044,1.244,102.103,30.483,1011.087,155.300,19.900,46.000,18.015,316.26,2,-9.00,9,-9.00,0.26,13.00,234.40,13.15,331.33
AOML_Explorer,Ex0720B,132.154,12052007,3:42:04,39.355,-72.481,333.08,-9.00,1010.97,1009.80,11.24,10.64,32.829,1.238,102.085,30.475,1010.968,155.500,19.900,46.000,18.529,318.75,2,-9.00,9,-9.00,0.22,13.57,233.77,13.27,333.54
AOML_Explorer,Ex0720B,132.156,12052007,3:44:37,39.343,-72.474,337.41,-9.00,1011.08,1009.80,11.35,10.54,32.967,1.248,102.342,30.467,1011.084,155.600,19.800,43.000,18.015,320.16,2,-9.00,9,-9.00,0.23,12.52,231.00,13.24,333.97
AOML_Explorer,Ex0720B,132.158,12052007,3:47:10,39.330,-72.466,341.47,-9.00,1010.98,1009.70,11.68,10.32,33.049,1.264,102.086,30.456,1010.977,155.000,19.700,48.000,18.529,316.58,2,-9.00,9,-9.00,0.36,13.92,235.31,13.27,333.49
AOML_Explorer,Ex0720B,132.160,12052007,3:49:43,39.317,-72.458,345.24,-9.00,1011.19,1009.80,11.62,10.62,33.054,1.246,102.184,30.446,1011.188,153.400,19.700,44.000,17.500,324.90,2,-9.00,9,-9.00,0.33,12.55,232.14,13.03,332.21
AOML_Explorer,Ex0720B,132.161,12052007,3:52:16,39.306,-72.449,343.42,-9.00,1011.13,1009.60,11.53,9.79,33.149,1.239,102.194,30.438,1011.129,145.100,19.700,54.000,17.500,313.41,2,-9.00,9,-9.00,0.49,14.29,234.72,13.06,330.13
AOML_Explorer,Ex0720B,132.163,12052007,3:54:49,39.295,-72.438,341.84,-9.00,1011.06,1009.60,11.72,11.07,32.727,1.236,102.380,30.431,1011.056,138.500,20.100,58.000,16.985,326.38,2,-9.00,9,-9.00,0.39,14.55,233.75,13.05,328.09
AOML_Explorer,Ex0720B,132.165,12052007,3:57:22,39.285,-72.425,346.16,-9.00,1011.12,1009.60,11.24,10.71,33.008,1.243,102.270,30.425,1011.120,132.700,20.300,57.000,16.470,332.32,2,-9.00,9,-9.00,0.40,14.13,229.64,13.05,323.91
AOML_Explorer,Ex0720B,132.167,12052007,3:59:55,39.275,-72.411,348.44,-9.00,1011.22,1009.60,11.93,9.97,32.961,1.181,102.374,30.417,1011.223,132.300,20.400,57.000,16.470,315.15,2,-9.00,9,-9.00,0.28,14.17,229.52,13.06,324.21
AOML_Explorer,Ex0720B,132.455,12052007,10:54:49,37.711,-70.401,364.44,-9.00,1013.56,1011.40,24.80,25.66,36.279,1.577,102.776,30.017,1013.564,0.000,0.000,23.000,9.779,364.88,2,-9.00,9,-9.00,0.04,6.29,247.74,21.74,240.02
AOML_Explorer,Ex0720B,132.457,12052007,10:57:22,37.711,-70.401,367.37,-9.00,1013.56,1011.60,25.13,25.68,36.272,1.556,102.820,30.032,1013.559,0.000,0.000,14.000,10.809,363.01,2,-9.00,9,-9.00,0.04,4.98,234.22,21.8,240.18
AOML_Explorer,Ex0720B,132.458,12052007,10:59:55,37.711,-70.401,369.85,-9.00,1013.49,1011.60,25.24,25.64,36.226,1.526,102.871,30.048,1013.491,0.000,0.000,22.000,10.809,363.14,2,-9.00,9,-9.00,0.04,6.36,240.09,21.92,239.97
AOML_Explorer,Ex0720B,132.473,12052007,11:21:40,37.539,-70.201,370.87,-9.00,1013.60,1011.50,25.00,25.13,36.272,1.569,102.641,30.229,1013.597,138.800,20.300,36.000,9.779,360.24,2,-9.00,9,-9.00,0.05,7.93,257.30,22.1,236.91
AOML_Explorer,Ex0720B,132.475,12052007,11:24:13,37.528,-70.189,371.28,-9.00,1013.65,1011.50,24.93,24.92,36.209,1.549,102.874,30.247,1013.649,139.200,20.200,38.000,9.265,358.74,2,-9.00,9,-9.00,0.06,8.23,261.68,22.24,236.24
AOML_Explorer,Ex0720B,132.477,12052007,11:26:46,37.517,-70.178,369.88,-9.00,1013.63,1011.40,24.79,25.01,36.247,1.559,103.163,30.258,1013.626,138.700,20.300,48.000,10.294,360.87,2,-9.00,9,-9.00,0.07,10.12,258.50,22.28,235.73
AOML_Explorer,Ex0720B,132.479,12052007,11:29:19,37.506,-70.166,367.13,-9.00,1013.55,1011.40,24.69,25.06,36.240,1.560,102.424,30.272,1013.551,138.100,20.300,46.000,10.294,360.38,2,-9.00,9,-9.00,0.07,9.70,257.12,22.4,235.34
AOML_Explorer,Ex0720B,132.480,12052007,11:31:52,37.495,-70.153,367.03,-9.00,1013.56,1011.40,24.73,25.09,36.307,1.574,103.203,30.281,1013.559,136.800,20.400,44.000,10.809,360.16,2,-9.00,9,-9.00,0.07,9.48,252.25,22.19,234.95
AOML_Explorer,Ex0720B,132.482,12052007,11:34:25,37.485,-70.141,367.95,-9.00,1013.55,1011.60,24.77,25.09,36.305,1.597,102.673,30.289,1013.551,137.000,20.300,35.000,10.809,360.35,2,-9.00,9,-9.00,0.08,7.90,246.79,22.12,234.83
AOML_Explorer,Ex0720B,132.484,12052007,11:36:58,37.474,-70.129,368.83,-9.00,1013.54,1011.60,24.80,25.05,36.303,1.586,102.969,30.295,1013.543,137.200,20.200,39.000,11.838,360.24,2,-9.00,9,-9.00,0.08,9.09,243.21,21.85,234.80
AOML_Explorer,Ex0720B,132.486,12052007,11:39:31,37.463,-70.117,369.53,-9.00,1013.55,1011.60,24.80,25.05,36.318,1.554,102.446,30.301,1013.553,138.200,20.100,36.000,11.323,360.93,2,-9.00,9,-9.00,0.07,8.11,243.79,21.65,234.73
AOML_Explorer,Ex0720B,132.488,12052007,11:42:04,37.453,-70.105,369.73,-9.00,1013.53,1011.60,24.78,24.99,36.324,1.555,102.996,30.310,1013.526,137.800,20.100,39.000,11.838,360.62,2,-9.00,9,-9.00,0.06,8.92,242.86,21.53,235.06
AOML_Explorer,Ex0720B,132.489,12052007,11:44:37,37.442,-70.093,369.66,-9.00,1013.57,1011.60,24.76,24.91,36.304,1.562,102.754,30.316,1013.574,127.200,17.600,42.000,10.809,359.60,2,-9.00,9,-9.00,0.06,8.79,250.41,21.32,235.27
AOML_Explorer,Ex0720B,132.491,12052007,11:47:10,37.431,-70.081,369.42,-9.00,1013.58,1011.60,24.70,24.79,36.269,1.558,102.405,30.328,1013.577,138.600,20.100,37.000,10.294,358.52,2,-9.00,9,-9.00,0.06,7.79,251.12,21.19,235.54
AOML_Explorer,Ex0720B,132.493,12052007,11:49:43,37.421,-70.069,368.19,-9.00,1013.69,1011.80,24.63,24.62,36.315,1.561,102.524,30.337,1013.692,138.900,20.000,38.000,11.323,355.96,2,-9.00,9,-9.00,0.06,8.34,245.32,21.4,235.61
AOML_Explorer,Ex0720B,132.495,12052007,11:52:16,37.410,-70.058,366.80,-9.00,1013.75,1011.70,24.52,24.40,36.348,1.549,102.745,30.347,1013.750,138.800,20.000,32.000,10.294,353.20,2,-9.00,9,-9.00,0.05,6.86,248.52,21.33,235.69
AOML_Explorer,Ex0720B,132.496,12052007,11:54:49,37.399,-70.046,365.46,-9.00,1013.78,1011.80,24.37,24.31,36.360,1.580,102.732,30.359,1013.778,137.600,21.000,42.000,9.265,352.93,2,-9.00,9,-9.00,0.06,8.08,260.77,21.13,235.64
AOML_Explorer,Ex0720B,132.498,12052007,11:57:22,37.389,-70.035,363.78,-9.00,1013.94,1011.80,24.22,24.10,36.391,1.537,102.254,30.368,1013.944,137.300,20.100,39.000,10.294,350.43,2,-9.00,9,-9.00,0.06,7.85,250.09,21.07,235.63
AOML_Explorer,Ex0720B,132.500,12052007,11:59:55,37.378,-70.022,362.40,-9.00,1014.04,1011.80,24.11,24.06,36.381,1.579,102.485,30.372,1014.041,137.300,20.100,46.000,9.265,350.28,2,-9.00,9,-9.00,0.06,8.61,259.63,20.97,235.31
AOML_Explorer,Ex0720B,132.515,12052007,12:21:40,37.289,-69.922,359.08,-9.00,1014.25,1012.00,23.84,24.03,36.418,1.597,102.746,30.505,1014.254,110.800,14.100,16.000,10.294,350.65,2,-9.00,9,-9.00,0.06,3.60,237.90,21.33,230.87
AOML_Explorer,Ex0720B,132.517,12052007,12:24:13,37.278,-69.911,359.59,-9.00,1014.16,1012.00,23.84,24.01,36.401,1.550,102.328,30.513,1014.161,131.800,8.200,35.000,9.779,350.96,2,-9.00,9,-9.00,0.06,6.67,252.49,21.48,230.17
AOML_Explorer,Ex0720B,132.519,12052007,12:26:46,37.267,-69.900,359.93,-9.00,1014.17,1012.00,23.84,24.04,36.384,1.573,103.139,30.520,1014.166,138.300,19.300,35.000,9.265,351.63,2,-9.00,9,-9.00,0.06,6.52,256.56,21.62,229.39
AOML_Explorer,Ex0720B,132.520,12052007,12:29:19,37.256,-69.888,359.70,-9.00,1014.11,1012.10,23.84,24.06,36.410,1.580,102.460,30.525,1014.109,0.000,0.000,38.000,10.294,351.84,2,-9.00,9,-9.00,0.06,7.27,249.90,21.65,229.03
AOML_Explorer,Ex0720B,132.522,12052007,12:31:52,37.246,-69.877,359.80,-9.00,1014.27,1012.10,23.86,24.08,36.426,1.567,102.860,30.529,1014.270,0.000,0.000,43.000,11.323,351.95,2,-9.00,9,-9.00,0.06,8.47,245.89,21.43,228.59
AOML_Explorer,Ex0720B,132.524,12052007,12:34:25,37.235,-69.866,360.10,-9.00,1014.27,1012.10,23.88,24.10,36.422,1.581,102.352,30.535,1014.272,139.500,20.700,29.000,11.323,352.14,2,-9.00,9,-9.00,0.06,6.05,234.80,21.3,228.55
AOML_Explorer,Ex0720B,132.526,12052007,12:36:58,37.224,-69.854,360.44,-9.00,1014.22,1012.20,23.89,24.13,36.415,1.559,102.697,30.539,1014.216,140.100,20.000,30.000,11.838,352.68,2,-9.00,9,-9.00,0.06,6.41,231.69,21.13,228.23
AOML_Explorer,Ex0720B,132.527,12052007,12:39:31,37.213,-69.843,360.40,-9.00,1014.14,1012.10,23.90,24.13,36.413,1.582,102.569,30.542,1014.138,140.500,19.900,33.000,10.809,352.48,2,-9.00,9,-9.00,0.06,6.41,242.72,21.24,227.51
AOML_Explorer,Ex0720B,132.529,12052007,12:42:04,37.202,-69.832,360.23,-9.00,1014.24,1012.20,23.93,24.08,36.375,1.560,102.627,30.547,1014.243,141.200,20.900,28.000,11.323,351.25,2,-9.00,9,-9.00,0.06,5.69,234.93,21.41,226.74
AOML_Explorer,Ex0720B,132.531,12052007,12:44:37,37.192,-69.821,360.13,-9.00,1014.33,1012.30,23.93,24.07,36.366,1.558,102.779,30.551,1014.328,141.500,20.000,30.000,11.838,351.10,2,-9.00,9,-9.00,0.06,6.20,232.68,21.47,226.02
AOML_Explorer,Ex0720B,132.533,12052007,12:47:10,37.181,-69.810,359.41,-9.00,1014.26,1012.30,23.90,24.01,36.378,1.565,102.507,30.554,1014.260,141.600,19.800,37.000,10.809,349.91,2,-9.00,9,-9.00,0.06,6.95,245.82,21.55,225.79
AOML_Explorer,Ex0720B,132.535,12052007,12:49:43,37.170,-69.799,358.86,-9.00,1014.34,1012.30,23.89,23.98,36.369,1.588,102.628,30.563,1014.340,141.300,19.800,37.000,10.809,349.16,2,-9.00,9,-9.00,0.06,6.85,246.02,21.47,225.47
AOML_Explorer,Ex0720B,132.536,12052007,12:52:16,37.159,-69.789,358.59,-9.00,1014.44,1012.40,23.84,23.82,36.353,1.567,101.518,30.568,1014.438,141.600,19.800,34.000,11.838,347.43,2,-9.00,9,-9.00,0.06,6.89,236.13,21.56,225.50
AOML_Explorer,Ex0720B,132.538,12052007,12:54:49,37.147,-69.778,357.80,-9.00,1014.45,1012.50,23.75,23.87,36.356,1.578,101.911,30.579,1014.450,141.000,19.800,29.000,11.838,348.67,2,-9.00,9,-9.00,0.06,5.89,229.99,21.53,225.17
AOML_Explorer,Ex0720B,132.540,12052007,12:57:22,37.137,-69.766,356.88,-9.00,1014.30,1012.20,23.68,23.94,36.384,1.575,101.890,30.583,1014.300,135.800,19.800,47.000,13.382,349.69,2,-9.00,9,-9.00,0.06,10.03,232.98,21.42,225.03
AOML_Explorer,Ex0720B,132.542,12052007,12:59:55,37.127,-69.754,356.33,-9.00,1014.09,1012.10,23.73,23.94,36.391,1.577,101.814,30.589,1014.092,136.500,20.000,53.000,12.353,348.42,2,-9.00,9,-9.00,0.05,10.37,243.44,21.44,225.19
AOML_Explorer,Ex0720B,132.557,12052007,13:21:40,37.037,-69.652,357.88,-9.00,1014.02,1011.70,23.64,24.32,36.380,1.587,102.112,30.710,1014.017,137.700,19.600,64.000,9.265,356.56,2,-9.00,9,-9.00,0.06,10.14,263.44,21.64,221.39
AOML_Explorer,Ex0720B,132.558,12052007,13:24:13,37.027,-69.640,357.70,-9.00,1014.09,1011.70,23.62,24.53,36.399,1.575,102.579,30.717,1014.090,138.400,19.800,60.000,9.265,359.86,2,-9.00,9,-9.00,0.07,9.61,262.79,21.87,221.17
AOML_Explorer,Ex0720B,132.560,12052007,13:26:46,37.016,-69.629,358.38,-9.00,1014.08,1011.70,24.08,24.79,36.374,1.560,102.707,30.723,1014.078,138.800,19.800,63.000,9.779,357.27,2,-9.00,9,-9.00,0.07,10.18,261.55,21.88,220.79
AOML_Explorer,Ex0720B,132.562,12052007,13:29:19,37.006,-69.617,361.53,-9.00,1013.94,1011.60,24.30,24.90,36.392,1.570,102.451,30.723,1013.939,139.800,19.800,67.000,9.265,358.75,2,-9.00,9,-9.00,0.07,10.38,266.13,21.89,220.42
AOML_Explorer,Ex0720B,132.564,12052007,13:31:52,36.995,-69.606,365.16,-9.00,1014.05,1011.60,24.54,24.93,36.379,1.591,102.214,30.727,1014.052,140.200,19.900,68.000,9.265,359.01,2,-9.00,9,-9.00,0.06,10.43,267.18,22.17,219.91
AOML_Explorer,Ex0720B,132.566,12052007,13:34:25,36.984,-69.595,366.18,-9.00,1014.11,1011.80,24.62,24.93,36.379,1.581,102.090,30.728,1014.112,140.000,19.900,50.000,11.323,358.87,2,-9.00,9,-9.00,0.07,8.57,247.07,22.32,219.69
AOML_Explorer,Ex0720B,132.567,12052007,13:36:58,36.973,-69.584,366.00,-9.00,1013.86,1011.60,24.66,24.94,36.369,1.595,101.979,30.727,1013.857,141.500,20.100,68.000,14.926,358.14,2,-9.00,9,-9.00,0.07,14.02,248.15,22.62,219.30